Change the Weather History Date:

Friday, January 18, 2013

  Actual Average (KMDW) Record (KMDW)
Temperature  
Mean Temperature 26 °F 25 °F  
Max Temperature 39 °F 31 °F 61 °F (1996)
Min Temperature 14 °F 18 °F -20 °F (1994)
Degree Days  
Heating Degree Days 38 40  
Month to date heating degree days 719  
Since 1 July heating degree days 2970  
Cooling Degree Days 0 0  
Month to date cooling degree days 0  
Year to date cooling degree days 0  
Moisture  
Dew Point 21 °F    
Average Humidity 71    
Maximum Humidity 89    
Minimum Humidity 53    
Precipitation  
Precipitation 0.00 in 0.06 in 1.39 in (1933)
Month to date precipitation 1.30  
Year to date precipitation 1.30  
Sea Level Pressure  
Sea Level Pressure 30.21 in    
Wind  
Wind Speed 11 mph (SSW)    
Max Wind Speed 30 mph    
Max Gust Speed 38 mph    
Visibility 10 miles    
Events      
T = Trace of Precipitation, MM = Missing Value Source: NWS Daily Summary

Daily Weather History Graph

Daily Weather History Graph

Search for Another Location

Airport or City:

Trip Planner

Search our weather history database for the weather conditions in past years. The results will help you decide how hot, cold, wet, or windy it might be!

Date:

Astronomy

Jan. 18, 2013 Rise Set
Actual Time 7:12 AM CST 4:48 PM CST
Civil Twilight 6:42 AM CST 5:19 PM CST
Nautical Twilight 6:08 AM CST 5:53 PM CST
Astronomical Twilight 5:35 AM CST 6:26 PM CST
Moon 10:44 AM CST (1/18) No Moon Set
Length of Visible Light 10h 37m
Length of Day
9h 36m
Waxing Crescent, 47% of the Moon is Illuminated
Jan 18
Waxing Crescent
Jan 18
First Quarter
Jan 26
Full
Feb 3
Last Quarter
Feb 10
New

Hourly Weather History & Observations

Time (CST) Temp. Windchill Dew Point Humidity Pressure Visibility Wind Dir Wind Speed Gust Speed Precip Events Conditions
12:15 AM 17.1 °F 11.7 °F 12.2 °F 81% 30.41 in 10.0 mi West 3.5 mph - N/A   Clear
12:35 AM 18.9 °F 13.7 °F 12.4 °F 76% 30.41 in 10.0 mi WSW 3.5 mph - N/A   Clear
12:55 AM 18.9 °F 13.7 °F 12.6 °F 76% 30.41 in 10.0 mi West 3.5 mph - N/A   Clear
1:15 AM 18.1 °F 12.9 °F 12.2 °F 78% 30.42 in 10.0 mi West 3.5 mph - N/A   Clear
1:35 AM 17.8 °F 10.9 °F 12.4 °F 79% 30.43 in 10.0 mi West 4.6 mph - N/A   Clear
1:55 AM 19.2 °F 12.5 °F 14.0 °F 80% 30.43 in 10.0 mi West 4.6 mph - N/A   Mostly Cloudy
2:15 AM 19.4 °F - 14.0 °F 80% 30.43 in 10.0 mi Calm Calm - N/A   Mostly Cloudy
2:35 AM 17.8 °F - 13.3 °F 83% 30.43 in 10.0 mi Calm Calm - N/A   Scattered Clouds
2:55 AM 16.5 °F - 12.4 °F 84% 30.43 in 10.0 mi Calm Calm - N/A   Clear
3:15 AM 15.8 °F - 12.6 °F 87% 30.42 in 10.0 mi Calm Calm - N/A   Clear
3:35 AM 16.2 °F 10.6 °F 12.9 °F 87% 30.42 in 10.0 mi South 3.5 mph - N/A   Clear
3:55 AM 16.3 °F 9.2 °F 13.1 °F 87% 30.43 in 10.0 mi SSW 4.6 mph - N/A   Clear
4:15 AM 15.1 °F 6.4 °F 12.2 °F 88% 30.42 in 10.0 mi South 5.8 mph - N/A   Clear
4:35 AM 15.3 °F 7.9 °F 12.2 °F 88% 30.41 in 10.0 mi South 4.6 mph - N/A   Clear
4:55 AM 14.4 °F 5.5 °F 11.3 °F 88% 30.41 in 10.0 mi South 5.8 mph - N/A   Clear
5:15 AM 14.9 °F 7.5 °F 12.0 °F 88% 30.41 in 10.0 mi South 4.6 mph - N/A   Clear
5:35 AM 15.4 °F 6.8 °F 12.7 °F 89% 30.41 in 10.0 mi SSW 5.8 mph - N/A   Clear
5:55 AM 17.1 °F 10.0 °F 14.0 °F 88% 30.41 in 10.0 mi South 4.6 mph - N/A   Clear
6:15 AM 17.4 °F 12.1 °F 14.5 °F 88% 30.40 in 10.0 mi SSW 3.5 mph - N/A   Clear
6:35 AM 18.1 °F 8.9 °F 14.9 °F 87% 30.40 in 10.0 mi South 6.9 mph - N/A   Clear
6:55 AM 19.0 °F 10.0 °F 15.8 °F 87% 30.39 in 10.0 mi South 6.9 mph - N/A   Clear
7:15 AM 20.3 °F 11.5 °F 16.7 °F 86% 30.39 in 10.0 mi South 6.9 mph - N/A   Clear
7:35 AM 21.6 °F 11.3 °F 17.6 °F 85% 30.37 in 10.0 mi South 9.2 mph - N/A   Mostly Cloudy
7:55 AM 23.0 °F 12.4 °F 18.1 °F 82% 30.37 in 10.0 mi SSW 10.4 mph - N/A   Scattered Clouds
8:15 AM 23.7 °F 12.1 °F 18.3 °F 80% 30.37 in 10.0 mi SSW 12.7 mph - N/A   Scattered Clouds
8:35 AM 24.6 °F 14.4 °F 18.5 °F 78% 30.37 in 10.0 mi SSW 10.4 mph - N/A   Scattered Clouds
8:55 AM 25.5 °F 14.9 °F 19.0 °F 76% 30.36 in 10.0 mi South 11.5 mph - N/A   Clear
9:15 AM 26.6 °F 16.2 °F 19.4 °F 74% 30.36 in 10.0 mi South 11.5 mph - N/A   Clear
9:35 AM 28.2 °F 16.8 °F 20.3 °F 72% 30.34 in 10.0 mi South 15.0 mph 18.4 mph N/A   Clear
9:55 AM 29.7 °F 18.6 °F 20.7 °F 69% 30.34 in 10.0 mi SSW 15.0 mph 19.6 mph N/A   Scattered Clouds
10:15 AM 31.1 °F 20.1 °F 21.6 °F 68% 30.33 in 10.0 mi SSW 16.1 mph 21.9 mph N/A   Mostly Cloudy
10:35 AM 32.0 °F 20.5 °F 21.6 °F 65% 30.32 in 10.0 mi SSW 18.4 mph 25.3 mph N/A   Mostly Cloudy
10:55 AM 33.8 °F 21.9 °F 21.9 °F 62% 30.31 in 10.0 mi SSW 21.9 mph 26.5 mph N/A   Clear
11:15 AM 34.7 °F 22.5 °F 22.3 °F 61% 30.28 in 10.0 mi SSW 24.2 mph 31.1 mph N/A   Clear
11:35 AM 34.9 °F 22.7 °F 21.9 °F 59% 30.26 in 10.0 mi SSW 24.2 mph 32.2 mph N/A   Clear
11:55 AM 35.4 °F 23.2 °F 22.1 °F 58% 30.24 in 10.0 mi SSW 25.3 mph 31.1 mph N/A   Clear
12:15 PM 38.1 °F 27.1 °F 23.0 °F 55% 30.22 in 10.0 mi SSW 24.2 mph 32.2 mph N/A   Clear
12:35 PM 38.5 °F 26.9 °F 22.8 °F 53% 30.20 in 10.0 mi SSW 27.6 mph 35.7 mph N/A   Clear
12:55 PM 39.2 °F 28.7 °F 23.4 °F 53% 30.18 in 10.0 mi SSW 23.0 mph 32.2 mph N/A   Clear
1:15 PM 39.7 °F 28.1 °F 23.9 °F 53% 30.16 in 10.0 mi SSW 29.9 mph 34.5 mph N/A   Clear
1:35 PM 39.4 °F 28.3 °F 24.6 °F 56% 30.15 in 10.0 mi SSW 26.5 mph 38.0 mph N/A   Clear
1:55 PM 39.4 °F 28.3 °F 25.0 °F 56% 30.13 in 10.0 mi South 26.5 mph 38.0 mph N/A   Clear
2:15 PM 39.6 °F 28.7 °F 25.2 °F 56% 30.11 in 10.0 mi SSW 25.3 mph 36.8 mph N/A   Clear
2:35 PM 39.7 °F 28.8 °F 25.3 °F 56% 30.10 in 10.0 mi SSW 26.5 mph 34.5 mph N/A   Clear
2:55 PM 39.4 °F 27.9 °F 25.3 °F 57% 30.09 in 10.0 mi SSW 28.8 mph 35.7 mph N/A   Clear
3:15 PM 39.4 °F 27.6 °F 25.3 °F 57% 30.07 in 10.0 mi SSW 29.9 mph 35.7 mph N/A   Clear
3:35 PM 39.2 °F 28.0 °F 25.5 °F 58% 30.06 in 10.0 mi SSW 26.5 mph 31.1 mph N/A   Clear
3:55 PM 38.7 °F 27.5 °F 25.3 °F 59% 30.04 in 10.0 mi South 25.3 mph 34.5 mph N/A   Clear
4:15 PM 38.3 °F 27.1 °F 24.8 °F 58% 30.03 in 10.0 mi South 25.3 mph 33.4 mph N/A   Clear
4:35 PM 37.6 °F 26.1 °F 25.3 °F 61% 30.01 in 10.0 mi South 25.3 mph 35.7 mph N/A   Clear
4:55 PM 36.7 °F 24.2 °F 25.5 °F 64% 30.01 in 10.0 mi South 28.8 mph 36.8 mph N/A   Clear
5:15 PM 36.3 °F 25.5 °F 25.5 °F 65% 30.01 in 10.0 mi South 20.7 mph 31.1 mph N/A   Clear
5:35 PM 36.1 °F 25.2 °F 25.5 °F 65% 30.02 in 10.0 mi SSW 20.7 mph 32.2 mph N/A   Clear
5:55 PM 36.0 °F 24.7 °F 25.7 °F 66% 30.02 in 10.0 mi SSW 21.9 mph 32.2 mph N/A   Clear
6:15 PM 36.1 °F 24.4 °F 26.1 °F 67% 30.02 in 10.0 mi SSW 24.2 mph 32.2 mph N/A   Clear
6:35 PM 36.0 °F 25.6 °F 26.1 °F 67% 30.03 in 10.0 mi SSW 18.4 mph 29.9 mph N/A   Clear
6:55 PM 35.6 °F 25.2 °F 26.4 °F 69% 30.03 in 10.0 mi SSW 18.4 mph 29.9 mph N/A   Clear
7:15 PM 35.6 °F 25.2 °F 26.6 °F 70% 30.02 in 10.0 mi SSW 18.4 mph 26.5 mph N/A   Clear
7:35 PM 35.8 °F 25.7 °F 26.6 °F 69% 30.02 in 10.0 mi SSW 17.3 mph 24.2 mph N/A   Clear
7:55 PM 36.1 °F 26.2 °F 27.0 °F 69% 30.01 in 10.0 mi SSW 17.3 mph 25.3 mph N/A   Clear
8:15 PM 36.5 °F 26.0 °F 27.1 °F 69% 30.00 in 10.0 mi SSW 19.6 mph 25.3 mph N/A   Clear
8:35 PM 37.4 °F 27.5 °F 26.6 °F 65% 30.00 in 10.0 mi SSW 18.4 mph 23.0 mph N/A   Clear
8:55 PM 36.5 °F 25.7 °F 27.1 °F 69% 30.00 in 10.0 mi SSW 20.7 mph 26.5 mph N/A   Clear
9:15 PM 36.7 °F 26.3 °F 27.3 °F 69% 29.99 in 10.0 mi SW 19.6 mph 26.5 mph N/A   Clear
9:35 PM 36.5 °F 25.7 °F 27.3 °F 69% 29.99 in 10.0 mi SSW 20.7 mph 27.6 mph N/A   Clear
9:55 PM 36.5 °F 26.3 °F 27.3 °F 69% 29.99 in 10.0 mi SSW 18.4 mph 26.5 mph N/A   Clear
10:15 PM 36.0 °F 26.0 °F 27.3 °F 71% 29.98 in 10.0 mi SSW 17.3 mph 24.2 mph N/A   Clear
10:35 PM 35.8 °F 26.5 °F 27.3 °F 71% 29.98 in 10.0 mi SW 15.0 mph 21.9 mph N/A   Clear
10:55 PM 36.1 °F 25.9 °F 27.3 °F 70% 29.97 in 10.0 mi SSW 18.4 mph - N/A   Clear
11:15 PM 36.0 °F 26.0 °F 27.3 °F 71% 29.97 in 10.0 mi SW 17.3 mph - N/A   Clear
11:35 PM 35.6 °F 26.6 °F 27.5 °F 72% 29.97 in 10.0 mi SW 13.8 mph 18.4 mph N/A   Clear
11:55 PM 35.8 °F 26.1 °F 27.3 °F 71% 29.96 in 10.0 mi SW 16.1 mph 20.7 mph N/A   Clear